Other Surface Observations
Issued by NWS Tucson, AZ

Home | Current Version | Previous Version | Text Only | Print | Product List | Glossary On
Versions: 1 2 3 4 5 6 7 8 9 10 11 12 13 14 15 16 17 18 19 20 21 22 23 24 25 26 27 28 29 30 31 32 33 34 35 36 37 38 39 40 41 42 43 44 45 46 47 48 49 50
000
SXUS55 KTWC 042016
OSOTWC

WEATHER ROUNDUP FOR SOUTHEAST ARIZONA
NATIONAL WEATHER SERVICE TUCSON AZ
115 PM MST TUE AUG 04 2015

AZZ504>506-514-042115-
LOCATION       SKY/WX    TMP DP  RH WIND       PRES   REMARKS
TUCSON         SUNNY    102  46  15 W6        29.99F
DAVIS-MONTHAN  SUNNY    100  53  21 NW6       29.97F
CHILDRENS PARK N/A       99  52  21 N3                PIMA CO DEQ
ALVERNON/22ND  N/A      N/A N/A N/A N/A               PIMA CO DEQ
CHERRY/GLENN   N/A      N/A N/A N/A N/A               PIMA CO DEQ
TANGERINE      N/A      101 N/A N/A W5                PIMA CO DEQ
CONTL RANCH    N/A      101  51  19 NW5               PIMA CO DEQ
GRANT/1ST      N/A       98  53  22 W1                PIMA CO DEQ
CRAYCROFT/22ND N/A      N/A N/A N/A N/A               PIMA CO DEQ
GOLFLINKS/KOLB N/A      N/A N/A N/A N/A               PIMA CO DEQ
AJO/12TH       N/A       97  52  22 NW4               PIMA CO DEQ
SAGUARO EAST   N/A      N/A N/A N/A N/A               PIMA CO DEQ
FAIRGROUNDS    N/A       97 N/A N/A W5                PIMA CO DEQ
SAGUARO        N/A      102  55  21 S5G11             *SABINO CYN
SAN CARLOS     N/A      102  44  14 W6G12             *SAN CARLOS
GREEN VALLEY   N/A       97  49  20 N4                PIMA CO DEQ
HORSE CAMP CYN N/A       96  41  15 NW7G17            *ARAVAIPA CYN
RINCON MTNS    N/A       81  47  30 SW2               *NR MANNING CAMP
$$

AZZ509>511-042115-
LOCATION       SKY/WX    TMP DP  RH WIND       PRES   REMARKS
SAFFORD        MOSUNNY  103  44  13 W12G20    29.98F
STRAY HORSE    N/A       80  45  29 SW5G13            *
TRAIL CABIN    N/A       87  47  25 NW7G18            *N OF GRANVILLE
BLACK HILLS    N/A      102  42  13 W10G19            *N OF FT THOMAS
DRY LAKE       N/A       86  44  23 W5                *NATANES MTNS
NOON CREEK     N/A       95  45  18 NE10G17           *PINALENO MTNS
COLUMBINE      N/A       73  38  28 SE3               *PINALENO MTNS
GUTHRIE        N/A       89  44  21 W2G16             *SW OF GUTHRIE
$$

AZZ502-503-513-042115-
LOCATION       SKY/WX    TMP DP  RH WIND       PRES   REMARKS
NOGALES        SUNNY     94  55  26 VRB3      30.09F
SELLS          N/A      103  51  18 NW8G12            *
SASABE         N/A       97  53  23 NE6G11            *ALTAR VLY
HOPKINS        N/A       85  52  32 W3                *SANTA RITA MTNS
CARR CYN       N/A       90  54  30 NE4               *W OF HEREFORD
$$

AZZ507-508-512-042115-
LOCATION       SKY/WX    TMP DP  RH WIND       PRES   REMARKS
SIERRA VISTA   SUNNY     91  45  20 VRB2      30.16F
DOUGLAS        SUNNY     92  53  26 VRB5      30.09F
EMPIRE MTNS    N/A       94  49  22 NE7G12            *LAS CIENEGAS NCA
MULESHOE RANCH N/A       95  46  19 NW5G15            *PRESERVE
HEADQUARTERS   N/A       90  46  22 W7G14             *CHIRICAHUA MTNS
$$

.............................NOTES.............................
THIS IS AN AUTOMATED COLLECTIVE WITH MINIMAL QUALITY CONTROL.
PIMA CO DEQ SITES HAVE NONSTANDARD WIND SENSOR HEIGHTS.
PIMA CO DEQ SITES DO NOT REPORT WIND GUSTS.
* INDICATES WIND SENSORS LOCATED AT 20 FEET INSTEAD OF 33 FEET.
..............................KEY..............................
SKY/WX - SKY CONDITION/WEATHER
TMP    - TEMPERATURE IN FAHRENHEIT
DP     - DEWPOINT IN FAHRENHEIT
RH     - RELATIVE HUMIDITY IN PERCENT
WIND   - DIRECTION AND SPEED IN MILES PER HOUR (MPH)
VRB    - VARIABLE WIND DIRECTION
PRES   - MEAN SEA LEVEL PRESSURE IN INCHES OF MERCURY
         F - FALLING PRESSURE   R - RISING PRESSURE
         S - STEADY PRESSURE
VSB    - VISIBILITY IN MILES
HX     - HEAT INDEX IN FAHRENHEIT
WCI    - WIND CHILL INDEX IN FAHRENHEIT
N/A    - NOT AVAILABLE
AFB    - AIR FORCE BASE
         DAVIS-MONTHAN IS DAVIS-MONTHAN AIR FORCE BASE
CYN    - CANYON
MTNS   - MOUNTAINS
NCA    - NATIONAL CONSERVATION AREA
NR     - NEAR
VLY    - VALLEY
CONTL  - CONTINENTAL
PIMA CO DEQ - PIMA COUNTY DEPT OF ENVIRONMENTAL QUALITY



USA.gov is the U.S. government's official web portal to all federal, state and local government web resources and services.